#timestamp,LO_Frequency,Hit,StdDev 
1513587615.2,286046995.2,N
1513587635.0,286046996.3,N
1513587635.9,286046996.3,N
1513587655.8,286046992.6,Y
1513587675.6,286046992.7,P
1513587695.4,286046991.9,N
1513587715.3,286046992.6,N
1513587735.1,286046995.2,N
1513587736.0,286046995.2,N
1513587755.8,286046995.0,N
1513587775.6,286046995.2,N
1513587795.5,286046995.5,N
1513587815.3,286046992.4,Y
1513587835.1,286046997.8,P
1513587855.9,286046996.9,N
1513587875.7,286046995.6,P
1513587895.6,286046994.6,Y
1513587915.4,286046993.8,P
1513587935.2,286046997.9,N
1513587955.0,286046994.8,P
1513587956.0,286046994.8,Y
1513587975.8,286046997.8,P
1513587995.6,286046994.0,P
1513588015.4,286046997.9,N
1513588035.3,286046997.6,N
1513588055.1,286046997.6,N
1513588075.8,286046998.1,N
1513588095.7,286046999.7,N
1513588115.5,286046996.7,N
1513588135.3,286046997.3,N
1513588155.2,286046995.1,Y
1513588175.9,286047002.6,P
1513588195.7,286047003.2,N
1513588215.6,286047005.6,N
1513588235.4,286047003.4,N
1513588255.2,286047005.7,N
1513588275.1,286047004.7,N
1513588276.0,286047004.7,N
1513588295.8,286047004.9,N
1513588315.6,286047003.2,N
1513588335.5,286047002.1,N
1513588355.3,286047006.6,N
1513588375.1,286047008.3,Y
1513588395.9,286047004.9,P
1513588415.7,286047008.1,P
1513588435.5,286047012.3,P
1513588455.4,286047012.3,Y
1513588475.2,286047006.8,P
1513588495.0,286047008.8,P
1513588495.9,286047008.8,P
1513588515.8,286047006.8,Y
1513588535.6,286047001.6,P
1513588555.4,286047005.0,N
1513588575.3,286047007.8,P
1513588595.1,286047011.6,Y
1513588596.0,286047011.6,P
1513588615.8,286047009.7,P
1513588635.7,286047012.2,P
1513588655.5,286047012.0,Y
1513588675.3,286047005.7,P
1513588695.2,286047005.6,N
1513588715.9,286047007.2,P
1513588735.7,286047007.2,Y
1513588755.6,286046999.4,P
1513588775.4,286047001.1,N
1513588795.2,286046998.7,N
1513588815.1,286047002.3,N
1513588816.0,286047002.3,N
1513588835.8,286047000.4,N
1513588855.6,286047001.8,N
1513588875.4,286047003.9,N
1513588895.3,286047003.2,N
1513588915.1,286047003.1,N
1513588935.8,286047002.7,N
1513588955.7,286047000.8,N
1513588975.5,286046998.3,N
1513588995.3,286046999.1,N
1513589015.2,286046999.5,N
1513589035.9,286046993.3,Y
1513589055.7,286046992.1,P
1513589075.6,286046993.6,N
1513589095.4,286046994.8,N
1513589115.2,286046995.8,N
1513589135.1,286046998.0,N
1513589136.0,286046998.0,N
1513589155.8,286046993.8,N
1513589175.6,286046992.0,N
1513589195.5,286046990.4,Y
1513589215.3,286046994.1,P
1513589235.1,286046992.5,P
1513589255.9,286046993.3,P
1513589275.7,286046991.7,Y
1513589295.5,286046994.9,P
1513589315.4,286047000.6,N
1513589335.2,286046999.0,N
1513589355.0,286046996.6,N
1513589355.9,286046996.6,N
1513589375.8,286047001.2,N
1513589395.6,286047000.6,N
1513589415.4,286047000.6,N
1513589435.2,286047004.4,N
1513589455.1,286047000.7,N
1513589456.0,286047000.7,N
1513589475.8,286047002.8,N
1513589495.6,286047001.5,N
1513589515.5,286047004.1,N
1513589535.3,286047003.3,N
1513589555.1,286047003.4,N
1513589575.9,286047005.1,N
1513589595.7,286047008.5,N
1513589615.5,286047008.8,N
1513589635.4,286047006.5,N
1513589655.2,286047010.0,N
1513589675.0,286047009.6,N
1513589675.9,286047009.6,N
1513589695.8,286047007.8,N
1513589715.6,286047013.4,N
1513589735.4,286047012.5,N
1513589755.2,286047015.3,N
1513589775.1,286047011.3,N
1513589776.0,286047011.3,N
1513589795.8,286047013.6,N
1513589815.6,286047014.0,N
1513589835.5,286047015.0,N
1513589855.3,286047009.6,N
1513589875.1,286047008.4,N
1513589895.9,286047003.0,N
1513589915.7,286047004.6,N
1513589935.5,286047004.3,N
1513589955.4,286046998.3,N
1513589975.2,286047001.1,N
1513589995.0,286047000.9,N
1513589995.9,286047000.9,N
1513590015.8,286046998.1,N
1513590035.6,286046998.0,N
1513590055.4,286046996.8,N
1513590075.2,286046993.4,N
1513590095.1,286046992.4,N
1513590096.0,286046992.4,N
1513590115.8,286046992.9,N
1513590135.6,286046990.3,N
1513590155.5,286046990.7,N
1513590175.3,286046989.1,N
1513590195.1,286046986.6,N
1513590215.9,286046984.9,N
1513590235.7,286046979.5,N
1513590255.5,286046979.4,N
1513590275.4,286046977.7,N
1513590295.2,286046974.9,N
1513590315.0,286046978.0,N
1513590315.9,286046978.0,N
1513590335.8,286046978.1,N
1513590355.6,286046977.1,N
1513590375.4,286046972.6,N
1513590395.3,286046971.6,N
1513590415.1,286046973.6,N
1513590416.0,286046973.6,N
1513590435.8,286046970.2,N
1513590455.7,286046969.5,N
1513590475.5,286046972.3,N
1513590495.3,286046970.6,N
1513590515.2,286046967.8,Y
1513590535.9,286046986.8,P
1513590555.7,286046985.9,P
1513590575.5,286046985.6,P
1513590595.4,286046985.0,Y
1513590615.2,286046998.8,P
1513590635.0,286046997.3,N
1513590636.0,286046997.3,N
1513590655.8,286046995.2,N
1513590675.6,286046997.0,N
1513590695.4,286046993.7,N
1513590715.3,286046996.1,N
1513590735.1,286046993.3,N
1513590755.8,286046993.3,N
1513590775.7,286046996.8,N
1513590795.5,286046997.0,N
1513590815.3,286046997.0,N
1513590835.2,286047001.0,N
1513590855.9,286046996.5,N
1513590875.7,286046995.4,N
1513590895.6,286046993.7,N
1513590915.4,286046996.4,N
1513590935.2,286046992.5,N
1513590955.1,286046989.6,Y
1513590956.0,286046989.6,P
1513590975.8,286046990.4,P
1513590995.6,286046990.4,P
1513591015.5,286046992.5,Y
1513591035.3,286046999.8,P
1513591055.1,286046998.9,N
1513591075.9,286046997.4,N
1513591095.7,286047000.7,N
1513591115.5,286046996.6,N
1513591135.3,286046997.7,N
1513591155.2,286046995.7,N
1513591175.0,286046992.1,N
1513591175.9,286046992.1,N
1513591195.7,286046993.9,N
